Weather History for Cincinnati, OH

Change the Weather History Date:

Tuesday, February 5, 2013

  Actual Average Record
Temperature  
Mean Temperature 34 °F -  
Max Temperature 39 °F 39 °F 66 °F (2008)
Min Temperature 28 °F 23 °F 0 °F (1965)
Degree Days  
Heating Degree Days 32    
Moisture  
Dew Point 29 °F    
Average Humidity 88    
Maximum Humidity 100    
Minimum Humidity 73    
Precipitation  
Precipitation 0.00 in - - ()
Sea Level Pressure  
Sea Level Pressure 29.93 in    
Wind  
Wind Speed 2 mph (WNW)    
Max Wind Speed 13 mph    
Max Gust Speed -    
Visibility 5 miles    
Events Fog    
Averages and records for this station are not official NWS values.
T = Trace of Precipitation, MM = Missing Value Source: NWS Daily Summary

Daily Weather History Graph

Daily Weather History Graph

Search for Another Location

Airport:

Trip Planner

Search our weather history database for the weather conditions in past years. The results will help you decide how hot, cold, wet, or windy it might be!

Date:

Astronomy

Feb. 05, 2013 Rise Set
Actual Time 7:40 AM EST 6:03 PM EST
Civil Twilight 7:12 AM EST 6:31 PM EST
Nautical Twilight 6:40 AM EST 7:03 PM EST
Astronomical Twilight 6:09 AM EST 7:34 PM EST
Moon 3:20 AM EST (2/5) 1:21 PM EST (2/5)
Length of Visible Light 11h 19m
Length of Day
10h 23m
Waning Crescent, 27% of the Moon is Illuminated
Feb 5
Waning Crescent
Feb 10
New
Feb 17
First Quarter
Feb 25
Full
Mar 4
Last Quarter

Hourly Weather History & Observations

Time (EST) Temp. Windchill Dew Point Humidity Pressure Visibility Wind Dir Wind Speed Gust Speed Precip Events Conditions
12:05 AM 30.2 °F - 30.2 °F 100% 29.89 in 0.8 mi Calm Calm - N/A   Overcast
12:12 AM 30.2 °F - 30.2 °F 100% 29.89 in 1.2 mi Calm Calm - N/A   Overcast
12:25 AM 30.2 °F - 30.2 °F 100% 29.88 in 0.8 mi Calm Calm - N/A   Overcast
12:53 AM 30.9 °F - 30.9 °F 100% 29.90 in 0.5 mi Calm Calm - N/A Fog Light Freezing Fog
1:07 AM 30.2 °F - 30.2 °F 100% 29.89 in 1.0 mi Calm Calm - N/A   Overcast
1:14 AM 30.2 °F - 30.2 °F 100% 29.89 in 0.5 mi Calm Calm - N/A Fog Light Freezing Fog
1:30 AM 30.2 °F - 30.2 °F 100% 29.89 in 1.5 mi Calm Calm - N/A   Overcast
1:51 AM 32.0 °F - 32.0 °F 100% 29.89 in 2.0 mi Calm Calm - N/A   Overcast
1:53 AM 32.0 °F - 32.0 °F 100% 29.90 in 2.0 mi Calm Calm - N/A   Overcast
2:17 AM 32.0 °F - 32.0 °F 100% 29.89 in 3.0 mi Calm Calm - N/A   Overcast
2:29 AM 32.0 °F - 32.0 °F 100% 29.89 in 2.5 mi Calm Calm - N/A   Overcast
2:45 AM 32.0 °F - 32.0 °F 100% 29.90 in 3.0 mi Calm Calm - N/A   Overcast
2:53 AM 32.0 °F - 32.0 °F 100% 29.91 in 3.0 mi Calm Calm - N/A   Overcast
3:04 AM 32.0 °F - 32.0 °F 100% 29.89 in 2.0 mi Calm Calm - N/A   Overcast
3:53 AM 32.0 °F - 32.0 °F 100% 29.90 in 3.0 mi Calm Calm - N/A   Overcast
4:27 AM 33.8 °F 24.8 °F 30.2 °F 87% 29.90 in 6.0 mi NNW 12.7 mph - N/A   Overcast
4:34 AM 32.0 °F 22.5 °F 28.4 °F 87% 29.91 in 5.0 mi NNW 12.7 mph - N/A   Overcast
4:53 AM 32.0 °F 24.8 °F 28.9 °F 88% 29.93 in 5.0 mi North 8.1 mph - N/A   Overcast
5:19 AM 32.0 °F 27.5 °F 28.4 °F 87% 29.91 in 6.0 mi North 4.6 mph - N/A   Overcast
5:37 AM 30.2 °F 25.4 °F 26.6 °F 86% 29.91 in 6.0 mi NNW 4.6 mph - N/A   Overcast
5:53 AM 30.9 °F 26.2 °F 26.1 °F 82% 29.91 in 7.0 mi North 4.6 mph - N/A   Overcast
6:53 AM 30.9 °F 26.2 °F 26.1 °F 82% 29.93 in 7.0 mi North 4.6 mph - N/A   Overcast
7:53 AM 30.0 °F 24.1 °F 25.0 °F 82% 29.96 in 6.0 mi NNW 5.8 mph - N/A   Haze
8:35 AM 28.4 °F - 24.8 °F 86% 29.96 in 4.0 mi Calm Calm - N/A   Haze
8:53 AM 28.9 °F 23.9 °F 25.0 °F 85% 29.98 in 4.0 mi NNW 4.6 mph - N/A   Clear
9:53 AM 32.0 °F - 26.1 °F 79% 29.97 in 4.0 mi Calm Calm - N/A   Haze
10:53 AM 32.0 °F 27.5 °F 26.6 °F 80% 29.97 in 4.0 mi West 4.6 mph - N/A   Haze
11:05 AM 32.0 °F 26.4 °F 26.6 °F 80% 29.98 in 4.0 mi West 5.8 mph - N/A   Haze
11:53 AM 33.1 °F 27.7 °F 27.0 °F 78% 29.99 in 4.0 mi West 5.8 mph - N/A   Haze
12:53 PM 33.1 °F 30.0 °F 27.0 °F 78% 29.97 in 5.0 mi West 3.5 mph - N/A   Haze
1:53 PM 35.1 °F 32.2 °F 28.0 °F 76% 29.93 in 6.0 mi South 3.5 mph - N/A   Haze
2:53 PM 36.0 °F 30.3 °F 28.9 °F 76% 29.93 in 7.0 mi SW 6.9 mph - N/A   Overcast
3:53 PM 37.0 °F 34.5 °F 30.9 °F 79% 29.92 in 7.0 mi SSW 3.5 mph - N/A   Overcast
4:53 PM 36.0 °F 31.1 °F 30.9 °F 82% 29.88 in 8.0 mi South 5.8 mph - N/A   Overcast
5:53 PM 36.0 °F - 30.9 °F 82% 29.90 in 7.0 mi Calm Calm - N/A   Overcast
6:53 PM 34.0 °F - 32.0 °F 92% 29.91 in 7.0 mi Calm Calm - N/A   Overcast
7:53 PM 33.1 °F - 30.9 °F 92% 29.96 in 6.0 mi Calm Calm - N/A   Overcast
8:53 PM 39.0 °F 34.0 °F 30.9 °F 73% 29.99 in 9.0 mi WNW 6.9 mph - N/A   Overcast
9:53 PM 37.9 °F 35.5 °F 30.9 °F 76% 30.01 in 9.0 mi Variable 3.5 mph - N/A   Overcast
10:53 PM 37.9 °F 34.4 °F 30.9 °F 76% 30.02 in 9.0 mi West 4.6 mph - N/A   Overcast
11:53 PM 39.0 °F 36.8 °F 30.9 °F 73% 30.04 in 9.0 mi WNW 3.5 mph - N/A   Overcast